Theta_e
279 279 278 278 278 278 278 278 278 278 278 278 277 277 277 277 278 278 278 278 278 278 278 278 278 278 278 278 278 278 278 278 278 279 279 280 280 280 281 282 283 284
279 278 278 278 278 278 278 278 278 278 277 277 277 277 277 278 278 278 278 278 278 278 277 277 277 277 277 277 277 277 277 277 277 278 278 278 279 280 280 282 283 283
278 278 278 278 278 278 278 278 278 278 277 277 277 277 277 277 277 277 277 277 278 278 277 277 277 277 277 277 277 277 277 277 277 277 277 277 278 279 280 281 282 282
278 278 278 278 278 278 278 278 278 278 277 277 277 277 277 277 277 277 277 277 277 277 277 277 276 276 276 276 276 276 276 276 276 277 277 277 278 279 279 280 281 281
278 278 278 278 278 278 278 278 277 277 277 277 277 277 277 276 276 276 276 276 276 276 276 276 276 276 276 276 276 276 276 276 276 276 277 278 278 279 279 279 280 280
278 278 278 278 278 278 277 277 277 277 277 276 276 276 276 276 276 276 276 276 276 276 276 276 276 276 276 275 276 276 276 276 276 276 277 277 278 278 278 279 279 280
278 278 278 277 277 277 277 277 276 276 276 276 276 276 276 276 275 275 275 275 275 275 275 275 275 275 275 275 275 275 275 275 276 276 277 277 278 278 278 278 278 279
277 277 277 277 277 277 276 276 276 276 276 276 275 275 275 275 275 275 275 275 275 275 275 275 274 274 274 274 274 274 274 275 275 276 276 277 277 277 277 278 278 278
277 277 277 277 276 276 276 276 275 275 275 275 275 275 275 275 275 274 274 274 274 274 274 274 274 274 274 273 273 273 274 274 275 276 276 277 277 277 277 277 277 278
277 276 276 276 276 275 275 275 275 275 275 275 275 275 275 275 275 275 274 274 274 274 274 274 274 273 273 273 273 273 274 274 275 276 276 276 276 277 277 277 277 277
277 276 276 276 275 275 275 275 276 276 275 275 275 275 275 275 275 274 274 274 274 273 273 273 273 273 273 273 273 273 274 274 275 276 276 276 276 276 276 277 277 277
276 276 276 275 275 276 276 276 276 275 275 275 274 274 274 274 274 274 273 273 273 273 273 273 273 273 273 273 273 273 274 275 275 276 276 276 276 276 276 276 276 277
276 275 275 275 276 276 276 275 275 274 274 274 274 274 274 273 273 273 272 272 272 272 272 272 273 273 273 273 273 273 274 275 275 275 275 275 276 276 276 276 276 276
275 276 276 276 276 275 275 275 274 274 274 274 274 274 273 273 272 272 272 272 272 272 272 272 272 272 272 272 273 273 274 275 275 275 275 275 275 275 276 276 275 275
276 276 276 276 275 275 274 274 274 274 274 274 274 273 273 272 272 272 272 272 272 272 272 272 272 272 272 272 273 274 274 275 274 275 275 275 275 275 275 275 274 274
277 276 276 275 275 274 274 274 274 274 274 274 273 273 272 272 272 272 271 271 271 271 272 272 271 271 271 272 273 274 274 274 274 274 275 274 274 275 274 273 273 273
277 276 276 275 274 274 274 274 274 274 274 273 273 273 272 272 272 272 271 271 271 271 271 271 271 271 271 271 272 273 274 274 274 274 274 274 274 274 273 272 273 273
276 276 275 274 274 274 274 274 274 274 273 273 273 273 272 272 272 271 271 271 270 270 270 270 270 270 270 271 272 273 273 273 274 273 273 273 273 273 272 272 272 273
276 275 274 274 274 274 274 274 274 273 273 273 273 272 272 272 271 271 271 270 270 269 269 270 270 270 270 270 271 272 272 273 273 273 272 272 272 272 272 272 272 272
275 274 274 274 274 274 274 274 273 273 272 272 272 271 271 270 270 270 270 269 269 269 269 269 269 269 269 270 271 271 272 273 272 272 272 272 272 272 272 271 271 272
275 274 274 274 274 274 274 273 273 272 272 271 271 270 270 269 269 269 269 268 268 268 268 268 268 268 268 269 270 271 271 272 271 271 271 271 271 271 271 271 271 272
275 274 275 275 274 274 273 272 272 271 271 270 270 269 269 269 269 268 268 268 268 268 267 267 268 268 268 269 269 270 271 271 270 270 271 271 271 271 271 271 271 271
275 275 275 274 274 273 272 272 271 271 270 269 269 269 269 269 268 268 268 268 268 268 267 267 267 268 268 268 268 269 270 270 270 270 270 270 270 270 271 271 271 271
275 275 274 274 273 273 272 271 271 271 270 269 269 269 269 268 268 268 268 268 267 267 267 267 267 267 267 267 268 268 269 270 270 270 270 270 270 270 271 271 271 271
275 275 274 274 273 272 272 271 271 270 270 269 269 268 268 268 268 267 268 268 267 267 267 267 267 267 267 267 267 268 269 269 269 269 269 270 270 270 270 271 271 270
275 275 274 273 273 272 271 271 270 270 270 269 268 268 268 268 267 267 267 267 267 267 267 267 266 266 267 267 266 267 269 269 269 269 269 270 270 270 270 270 270 270
Wind_Speed
24 24 24 24 24 24 23 24 24 24 25 25 25 25 25 25 25 25 25 25 25 25 25 25 25 25 25 25 25 25 24 24 23 21 21 19 18 19 20 20 19 17
22 22 22 22 23 22 22 22 22 23 23 23 23 23 23 23 23 24 24 24 24 24 24 25 24 24 24 24 24 24 24 24 23 22 20 19 18 18 19 19 17 16
21 21 21 21 20 20 20 19 20 20 20 20 21 21 21 21 22 22 22 23 23 23 23 23 23 23 23 22 22 22 22 22 22 21 21 20 19 19 19 17 16 16
19 18 18 18 18 17 17 17 18 18 19 19 20 20 20 21 21 22 22 23 23 24 24 24 25 25 24 24 23 23 22 22 21 20 20 20 19 18 18 17 16 16
17 17 16 16 16 16 16 16 17 18 18 19 19 20 20 21 22 23 24 24 25 25 26 26 26 26 25 25 24 24 24 23 22 21 20 20 19 18 17 17 16 16
15 14 14 14 14 13 14 15 15 16 17 17 18 19 20 20 21 22 23 24 24 24 24 25 24 24 24 23 23 22 22 22 22 21 20 19 18 18 18 17 16 16
12 11 11 11 11 12 12 13 14 14 15 16 17 18 19 20 21 23 23 24 24 24 25 25 25 25 24 24 23 22 21 21 21 19 19 18 17 18 18 17 16 16
10 10 10 10 11 11 12 13 13 14 15 16 17 19 21 22 23 24 25 25 25 26 26 26 26 26 25 25 24 23 23 22 21 19 17 17 16 17 17 17 16 16
9 9 10 10 10 11 12 13 13 15 16 18 20 21 21 22 23 24 25 25 25 26 26 26 26 26 26 25 24 23 23 22 20 18 16 16 16 16 17 17 16 17
7 8 8 9 10 11 12 13 15 16 17 18 18 18 20 21 22 23 24 24 24 25 25 26 26 26 26 25 24 23 22 22 19 16 15 16 16 16 17 17 17 18
6 6 7 9 10 11 13 14 15 15 15 15 16 17 19 21 22 22 23 23 23 24 24 25 25 25 25 24 24 23 22 21 18 16 16 16 16 17 17 17 18 19
4 5 8 11 12 13 13 12 12 12 13 14 16 18 20 21 22 22 22 23 23 23 24 24 24 24 24 24 24 23 22 19 18 17 17 17 16 17 17 17 18 19
3 6 9 11 11 11 10 10 10 12 13 16 18 20 21 22 22 22 22 22 23 23 23 24 24 24 23 23 23 22 20 19 18 18 18 17 17 17 17 18 19 20
3 7 9 9 10 9 9 10 11 13 15 17 18 20 21 21 21 22 22 22 22 23 23 23 24 23 23 23 22 21 20 19 19 19 18 19 18 18 18 18 20 23
5 7 8 8 8 9 9 10 12 14 15 17 19 20 20 21 21 21 22 22 22 22 22 23 23 23 22 21 21 21 20 20 19 19 19 19 19 19 18 19 21 23
6 7 7 8 8 9 10 11 13 14 16 18 19 20 20 21 21 21 21 21 21 22 22 23 23 23 22 19 20 21 21 21 20 19 19 19 19 19 19 20 21 20
6 7 7 8 8 9 10 11 13 15 16 18 19 20 21 21 21 21 21 21 22 22 23 24 24 23 21 19 20 21 21 22 21 20 19 18 18 18 19 20 20 20
7 7 7 7 8 9 11 12 14 15 17 18 19 20 21 21 21 21 21 22 22 23 24 24 24 23 21 20 21 22 22 22 22 20 19 18 17 17 18 20 20 20
7 7 7 8 9 10 12 13 14 16 17 18 19 20 20 20 20 21 21 22 22 23 24 24 24 24 21 20 21 22 23 23 21 19 18 18 17 17 18 19 20 21
8 8 8 8 9 11 12 13 14 15 16 17 19 19 19 19 20 20 21 21 22 22 23 24 25 24 21 20 22 22 23 22 20 18 18 18 18 18 18 19 20 21
9 9 8 9 10 11 12 13 14 15 16 17 18 18 19 19 19 20 20 21 22 23 24 25 26 25 21 21 22 23 23 22 19 18 18 18 18 18 19 20 20 20
10 9 9 10 11 11 12 13 14 15 16 17 17 18 18 19 19 19 20 21 22 23 24 25 26 25 23 22 22 23 23 21 19 19 19 19 19 19 20 20 20 19
10 9 9 10 11 12 12 13 14 15 16 16 18 18 19 19 19 19 20 21 22 23 23 25 26 26 24 23 22 22 22 20 19 19 19 20 21 20 20 20 19 19
10 10 10 11 11 12 13 13 14 15 16 17 18 18 19 19 19 20 21 21 22 22 23 24 26 26 24 23 21 21 21 20 19 20 20 21 21 21 20 20 21 21
11 11 11 11 12 13 13 14 15 15 16 17 17 18 19 19 19 20 21 21 21 22 23 23 26 26 24 22 21 20 20 20 20 20 21 21 22 22 22 22 22 22
12 12 12 13 13 13 13 14 15 16 17 18 18 18 18 19 19 20 21 21 21 22 23 23 25 26 24 22 20 20 20 20 20 20 21 22 23 23 24 24 23 23
Wind_Direction
65 64 63 61 60 57 55 53 51 49 47 43 42 40 38 36 34 34 33 32 31 29 28 27 24 22 20 19 18 17 16 16 15 14 11 8 1 356 357 360 2 357
64 64 63 61 59 56 53 52 49 47 45 42 41 39 36 34 32 31 30 29 27 27 26 23 22 21 18 16 15 14 13 11 10 9 5 1 358 357 358 359 357 351
62 60 59 58 56 55 53 50 48 46 44 41 39 36 33 31 29 27 26 24 23 22 22 20 19 19 17 16 14 13 12 9 7 5 1 0 1 359 358 356 350 344
61 59 58 57 54 52 50 47 45 43 40 37 34 32 29 26 24 23 21 20 19 18 17 16 15 15 14 14 11 11 10 9 7 5 2 3 5 1 356 352 345 342
59 57 54 52 50 47 43 42 41 38 36 33 30 28 26 23 21 20 18 17 16 14 13 12 11 11 10 9 8 7 5 4 5 3 1 1 1 357 352 348 345 342
60 56 52 49 47 44 41 41 39 35 34 31 28 26 23 21 20 18 16 14 12 10 8 7 6 6 6 6 5 3 2 0 0 1 1 358 353 350 349 346 342 338
65 61 57 51 46 43 41 40 38 35 33 30 27 24 21 19 18 15 13 10 8 7 5 3 3 3 3 3 2 1 1 359 360 1 358 353 346 344 344 341 337 333
65 60 54 48 43 40 38 37 35 33 30 27 24 22 19 16 14 11 9 7 5 4 2 1 1 1 2 1 360 359 358 358 0 358 351 345 341 337 337 336 333 328
57 51 45 40 37 35 35 34 32 29 25 22 20 17 13 11 10 7 5 3 1 360 359 359 358 359 360 359 358 357 356 356 356 352 343 338 335 331 331 330 328 324
51 45 39 35 35 33 31 29 25 22 18 14 11 9 7 6 5 2 0 359 358 357 357 357 357 357 358 357 356 356 354 353 350 342 335 333 330 328 326 325 324 322
47 39 32 32 31 27 23 19 14 10 7 5 5 5 4 3 1 360 358 358 358 358 357 356 356 357 356 355 354 355 353 348 342 334 331 329 325 323 323 322 321 319
37 32 28 25 21 15 10 4 359 358 1 3 4 4 2 0 360 359 359 359 359 358 357 355 356 357 355 353 353 353 350 342 334 329 328 325 321 321 319 317 318 317
32 30 23 14 6 0 354 350 353 359 3 4 3 2 1 360 359 358 359 359 358 357 355 354 355 356 354 352 352 347 340 334 330 327 324 321 319 318 316 314 314 314
30 18 7 355 347 344 343 347 356 0 2 1 360 359 359 358 357 357 356 356 355 354 353 352 354 354 353 352 348 340 333 330 327 323 321 320 317 316 314 313 313 312
7 352 341 334 332 335 342 349 355 357 356 356 356 356 356 355 355 355 354 354 353 351 350 351 351 352 353 349 340 333 330 327 323 321 320 317 315 315 312 312 313 313
335 323 317 320 326 335 343 347 349 350 351 352 352 352 352 352 352 352 352 350 350 349 349 349 349 350 351 344 334 330 327 324 321 319 318 316 314 314 313 313 313 313
304 299 304 314 323 333 338 340 343 346 348 348 348 348 348 348 348 348 348 348 348 348 348 347 346 348 348 339 331 329 326 323 321 318 316 315 313 312 313 314 313 313
284 287 296 308 318 327 332 336 339 342 343 342 342 343 343 343 344 344 345 346 347 347 346 344 343 346 346 336 328 327 326 323 320 317 315 314 312 311 312 314 315 315
272 277 287 300 314 324 328 332 335 336 337 338 338 340 339 339 341 341 342 344 345 344 343 341 341 345 343 332 324 324 325 324 321 317 315 313 312 311 311 313 315 315
260 266 282 299 313 320 322 326 329 330 333 334 334 335 336 336 338 338 340 342 342 341 340 338 341 344 338 326 322 323 325 325 323 318 315 313 311 310 310 311 313 313
251 261 282 302 310 314 316 320 323 326 329 330 331 332 332 333 335 336 337 338 338 339 338 337 339 341 334 322 321 324 326 327 325 319 316 314 311 310 308 308 309 309
248 263 284 299 304 306 310 314 319 322 325 325 326 327 329 330 332 333 333 334 336 338 337 335 336 338 334 326 323 325 328 328 324 320 317 314 311 310 308 307 307 306
248 265 283 292 296 299 304 309 314 317 319 320 322 324 326 327 328 328 330 331 333 336 335 331 332 335 334 328 325 326 327 326 322 319 316 312 310 309 308 307 306 305
251 266 278 286 289 292 298 303 309 313 316 318 320 321 321 322 322 323 326 328 329 331 331 328 328 331 331 328 325 326 325 323 321 318 314 311 310 309 308 308 306 305
253 265 273 279 282 286 293 299 305 311 315 316 316 316 316 316 317 318 321 323 325 325 326 326 326 327 329 329 326 323 322 321 319 316 312 310 310 310 309 308 306 306
255 263 269 273 277 283 290 297 305 310 312 313 313 312 312 311 312 315 317 318 321 321 322 325 325 325 328 329 323 318 319 320 317 314 311 309 309 309 309 309 308 306